Temperature
17 18 18 18 18 17 17 16 16 17 17 18 18 18 19 19 19 19 19 19 20 20 19 19 19 19 18 18 18 17 17 17 16 16 16 16 15 15 15 15 14 14 14 14
18 18 18 18 18 18 17 17 17 17 17 17 18 19 19 19 19 19 20 20 20 20 20 19 19 19 18 18 18 17 17 17 17 16 16 16 15 15 15 15 14 14 14 14
16 18 18 18 18 18 17 17 17 17 17 17 17 17 18 19 19 20 20 20 20 20 20 20 20 19 19 18 18 17 17 17 16 16 16 16 15 15 15 15 14 14 14 14
15 17 18 18 18 18 18 18 17 17 17 17 18 19 20 20 20 20 20 20 20 20 20 20 20 19 19 18 18 18 17 17 17 16 16 15 15 15 15 14 14 14 14 13
14 16 17 18 18 18 18 18 18 17 17 18 18 18 19 21 21 21 21 21 21 21 20 20 20 19 19 18 18 18 17 17 17 16 16 15 15 15 15 14 14 14 13 13
14 16 17 18 18 19 18 18 18 18 17 17 18 16 18 21 21 21 20 20 20 20 20 20 20 19 19 18 18 18 18 17 17 16 16 16 15 15 15 14 14 13 13 13
14 15 16 17 18 18 18 18 19 19 19 18 17 18 20 21 21 20 20 20 20 20 20 20 20 19 19 18 18 18 17 17 16 16 16 15 15 15 14 14 13 13 13 13
13 15 16 17 17 17 17 19 19 19 19 19 20 20 20 20 21 20 20 20 20 19 19 19 19 19 19 18 18 18 17 17 16 16 15 15 15 14 14 14 13 13 13 12
14 15 17 17 18 19 19 19 20 20 20 20 20 20 20 20 20 20 20 19 19 19 19 19 19 19 19 18 18 17 17 16 16 16 15 15 14 14 14 13 13 13 13 12
13 14 16 17 18 19 19 19 20 20 20 20 19 19 19 19 19 19 19 19 19 18 18 18 18 18 18 18 17 17 17 16 16 15 15 15 14 14 14 13 13 13 13 12
13 14 16 17 18 19 19 19 19 20 20 19 19 19 19 19 19 19 19 19 18 18 18 18 18 17 17 17 17 17 16 16 15 15 15 14 14 14 13 13 13 13 13 12
14 15 15 17 18 18 19 19 19 19 19 19 19 19 19 18 18 18 18 18 18 18 18 17 17 17 17 17 16 16 16 16 15 15 15 14 14 14 13 13 13 12 12 12
16 17 17 18 18 18 18 18 19 19 19 18 18 18 18 18 18 18 18 18 18 17 17 17 17 17 17 16 16 16 16 15 15 15 14 14 14 13 13 13 13 12 12 12
16 16 16 17 17 17 18 18 18 18 18 18 18 18 18 17 17 17 17 17 17 17 17 16 16 16 16 16 16 16 15 15 15 15 14 14 13 13 13 13 12 12 12 12
16 16 16 16 16 17 17 17 17 17 17 17 17 17 17 17 17 17 17 16 16 16 16 16 16 16 16 15 15 15 15 15 14 14 14 13 13 13 12 12 12 12 12 11
15 15 15 16 16 16 16 16 16 16 17 17 17 16 16 16 16 16 16 16 16 16 16 16 16 15 15 15 15 15 15 14 14 14 13 13 13 12 12 12 12 11 11 11
14 14 14 15 15 15 16 16 16 16 16 16 16 16 16 16 16 16 15 15 15 15 15 15 15 15 15 15 14 14 14 14 13 13 13 13 12 12 12 12 11 11 11 11
14 14 14 15 15 15 15 15 15 15 16 15 15 15 15 15 15 15 15 15 15 15 15 15 15 15 14 14 14 14 14 13 13 13 13 12 12 12 11 11 11 11 10 10
13 13 14 14 14 14 14 15 15 15 15 15 15 15 15 15 15 14 14 14 14 14 14 14 14 14 14 14 13 13 13 13 13 12 12 12 12 11 11 11 10 10 10 10
13 13 13 13 13 14 14 14 14 14 14 14 14 14 14 14 14 14 14 13 14 14 14 13 13 13 13 13 13 13 12 12 12 12 12 11 11 11 11 10 10 10 9 9
12 12 13 13 13 13 13 13 13 13 13 13 13 13 13 13 13 13 13 13 13 13 13 13 13 13 12 12 12 12 12 12 12 12 11 11 11 10 10 10 9 9 9 9
11 11 12 12 12 12 12 12 12 13 13 13 13 13 13 13 12 12 12 12 13 12 12 12 12 12 12 12 12 11 11 11 11 11 11 10 10 10 9 9 9 9 9 8
11 11 11 11 11 11 11 11 12 12 12 12 12 12 12 12 12 12 12 12 12 12 12 12 11 11 11 11 11 11 11 10 10 10 10 10 9 9 9 9 8 8 8 8
10 10 10 10 10 11 11 11 11 11 11 11 11 11 11 11 11 11 11 11 11 11 11 11 11 10 10 10 10 10 10 10 10 9 9 9 9 8 8 8 8 8 7 7
10 10 10 10 10 10 10 10 10 10 10 10 10 10 10 10 10 10 10 10 10 10 10 10 10 9 9 9 9 9 9 9 9 8 8 8 8 8 7 7 7 7 7 6
9 9 9 9 9 9 9 9 9 9 9 9 9 9 9 9 10 9 9 9 9 9 9 9 9 9 9 8 8 8 8 8 8 7 7 7 7 7 6 6 6 6 6 5
8 8 8 8 8 9 9 9 9 9 9 9 9 8 8 9 9 9 8 8 8 8 8 8 8 8 8 7 7 7 7 7 7 6 6 6 6 6 6 5 5 5 5 5
Wind_Speed
5 3 4 4 6 8 8 8 8 8 8 10 8 6 5 6 7 8 8 9 11 12 11 10 10 9 9 9 8 9 9 8 7 6 5 5 5 4 4 4 4 3 4 3
1 2 3 3 5 8 8 6 7 6 8 9 6 3 3 6 8 9 10 11 11 11 11 12 12 11 10 9 9 9 9 8 7 7 6 6 5 5 4 4 3 4 3 3
2 2 2 4 6 7 5 4 6 8 9 5 3 4 6 7 9 11 11 11 12 12 13 13 13 13 12 11 9 10 9 8 8 8 7 6 6 5 5 4 4 4 3 3
2 2 4 7 3 5 6 5 6 7 6 5 6 5 4 5 8 10 10 11 11 11 11 10 10 10 10 10 10 10 9 9 9 9 8 7 6 6 5 4 4 3 3 3
4 3 5 6 3 5 5 4 5 6 6 4 1 2 3 3 7 9 10 10 10 10 10 10 11 11 11 10 10 10 10 10 9 10 9 8 7 6 4 4 3 3 3 3
4 4 6 7 4 2 4 3 5 4 5 2 3 1 5 4 4 5 5 5 7 8 8 9 10 11 12 11 11 11 11 10 10 10 10 9 8 6 4 4 4 4 3 3
4 4 6 6 3 4 4 6 4 3 4 4 5 6 5 3 3 3 4 5 6 8 9 10 10 12 12 11 12 11 9 9 9 9 9 8 7 5 5 5 4 3 3 2
5 4 6 3 5 6 7 3 2 2 3 4 5 3 2 1 1 3 4 5 7 7 7 7 10 12 11 11 9 8 9 9 9 8 8 7 7 6 5 6 5 4 2 1
7 6 4 2 5 4 3 3 3 2 3 3 2 2 1 1 1 2 4 5 5 6 6 6 8 11 12 9 9 10 9 9 8 8 6 7 8 7 5 5 5 4 4 3
3 5 4 3 3 3 3 4 3 3 2 2 2 2 1 1 1 2 3 5 5 6 7 6 7 8 8 8 10 11 10 9 8 8 6 6 6 6 6 6 5 5 4 4
3 5 4 3 3 3 2 1 0 0 1 2 3 1 1 2 2 2 2 3 5 6 6 6 6 6 6 9 11 10 9 8 8 7 7 6 5 5 6 7 7 7 6 6
5 6 4 5 4 2 2 2 2 1 1 1 2 2 1 1 2 2 3 3 4 5 5 5 6 6 7 8 10 11 9 8 7 6 6 5 5 2 2 4 6 7 7 6
4 3 4 4 3 1 2 2 2 3 3 1 0 1 2 1 1 2 3 3 5 5 5 6 6 6 7 8 9 10 9 9 7 7 7 6 6 5 3 1 1 3 5 6
3 1 1 2 3 2 1 1 1 1 1 2 1 2 2 2 2 2 2 3 3 4 5 5 6 6 6 8 9 8 8 9 8 7 7 7 6 6 5 5 3 3 3 5
3 3 4 3 1 1 1 3 3 2 2 1 1 2 2 2 2 2 2 2 4 4 4 5 5 4 5 7 8 8 7 6 6 6 6 6 5 5 5 5 4 3 2 2
2 1 1 1 1 1 1 2 2 1 1 1 1 1 2 2 2 2 2 4 5 4 4 5 5 4 6 7 7 6 6 9 8 6 5 5 5 5 5 5 5 4 4 4
3 2 2 2 3 3 3 3 4 4 3 2 3 2 2 2 2 2 2 3 4 4 4 5 4 4 6 7 7 6 5 6 9 6 6 6 6 6 6 5 5 5 6 6
5 5 5 5 4 4 3 3 2 3 3 3 2 2 3 4 4 3 2 1 2 1 1 3 3 4 5 6 6 5 5 5 6 6 6 6 5 5 5 5 6 6 4 4
2 3 3 3 3 3 3 3 2 2 1 2 3 3 3 3 3 3 3 3 2 1 2 2 4 4 4 6 6 5 5 6 5 4 5 6 5 5 5 5 5 5 4 4
1 1 1 1 1 2 2 1 1 1 1 2 2 2 1 1 2 3 3 3 3 3 3 2 3 3 4 5 6 5 5 6 6 5 4 5 5 5 5 5 5 5 4 4
1 0 0 0 0 0 1 1 2 2 1 2 3 3 3 2 2 3 3 2 3 1 2 3 3 3 3 4 6 4 5 5 5 5 5 5 5 4 4 4 4 4 5 4
1 1 1 1 0 1 1 0 1 1 1 1 1 2 2 2 2 2 2 3 3 2 2 2 2 3 4 5 4 4 4 4 4 4 4 4 4 4 4 5 5 4 4 4
2 2 1 1 1 1 1 1 0 1 2 2 2 2 3 3 3 3 2 2 2 2 2 2 3 4 5 4 4 4 4 4 3 3 4 4 4 4 4 5 4 4 4 4
2 1 1 1 1 1 0 1 1 0 1 1 2 2 3 2 1 1 2 2 2 3 2 3 5 5 5 3 3 3 3 3 3 2 2 2 3 3 3 3 3 3 4 4
1 1 1 2 2 1 1 0 1 1 2 1 1 1 1 2 3 2 1 2 3 3 2 3 5 5 4 3 3 3 3 2 3 2 2 2 2 2 2 2 3 3 3 4
1 1 2 2 2 2 2 2 1 0 1 0 1 1 1 0 1 1 1 2 2 3 2 2 3 4 3 3 3 3 2 2 2 2 2 2 2 2 2 2 3 3 3 3
1 1 1 0 0 1 2 2 2 1 1 2 1 1 0 1 1 2 2 2 2 2 2 2 2 3 3 3 3 2 2 2 2 2 1 1 1 1 2 2 2 2 2 3
Wind_Direction
224 214 175 198 197 181 185 191 196 232 241 263 267 250 228 199 182 177 183 186 188 189 188 184 180 179 178 176 171 166 160 163 172 167 156 147 142 138 133 131 130 125 112 100
253 219 198 238 232 201 208 204 219 246 264 263 267 246 218 194 184 189 195 196 194 190 188 188 185 182 179 178 175 166 167 172 166 157 154 153 151 143 135 130 124 121 122 119
238 285 103 262 237 204 196 198 190 223 248 269 276 247 222 205 196 198 200 198 194 191 191 192 189 182 182 180 168 167 172 170 166 163 162 162 155 145 146 145 136 134 136 131
158 122 221 240 239 189 191 217 209 230 250 245 237 246 236 203 199 208 202 198 196 191 188 186 178 175 171 163 166 170 172 173 171 166 166 161 155 159 158 149 150 154 156 159
138 188 268 293 262 178 183 248 227 227 254 271 268 36 320 244 210 211 205 200 196 187 179 172 170 167 159 163 167 171 178 179 175 168 164 164 168 171 165 156 160 164 163 165
137 168 227 250 267 207 134 265 263 210 236 228 110 86 275 269 226 217 197 187 178 167 158 164 168 160 160 167 171 183 186 181 174 168 167 172 174 170 164 163 169 162 162 178
162 201 250 255 266 118 146 241 259 206 214 184 187 215 247 258 231 199 175 169 159 159 167 173 165 160 166 171 186 188 173 165 166 169 170 168 163 160 156 155 150 158 167 187
155 183 248 252 136 169 216 240 231 212 208 206 224 244 262 239 196 159 150 151 155 160 167 164 162 163 170 185 186 160 155 158 165 166 167 160 154 155 154 153 155 166 171 204
184 205 237 200 200 231 206 210 228 219 228 200 202 223 236 203 142 145 151 151 150 150 150 156 167 169 178 184 157 152 154 160 162 159 159 157 160 160 157 160 167 179 184 204
214 260 264 260 268 281 234 230 237 213 205 175 187 196 187 145 134 141 143 146 142 142 150 163 171 178 178 160 154 154 159 161 159 159 159 158 162 167 169 176 182 187 195 209
231 276 309 298 272 268 267 275 296 79 143 167 165 180 190 179 175 169 157 149 150 158 165 171 167 169 160 154 154 155 159 160 162 164 164 168 173 183 185 195 192 191 202 201
216 224 205 246 269 265 240 254 218 158 78 109 165 183 174 189 184 162 160 149 153 160 163 166 163 164 161 161 160 157 160 165 169 168 168 168 170 174 216 206 212 208 201 196
225 244 218 249 279 256 218 232 209 182 174 173 178 153 145 152 161 145 152 159 172 176 171 167 163 165 166 165 164 167 171 173 172 172 173 175 177 179 191 244 221 211 211 208
234 168 237 258 264 267 226 186 123 107 116 139 126 101 118 114 120 141 176 189 172 160 160 163 163 174 171 165 168 173 171 174 173 178 180 181 184 187 185 184 201 242 241 225
242 220 224 251 290 5 74 91 86 69 56 52 84 113 133 146 171 192 184 144 134 141 158 162 169 181 165 164 169 172 173 177 176 175 177 180 179 179 184 189 198 208 216 238
242 239 211 211 220 207 111 125 143 191 193 168 152 173 185 177 166 149 141 145 149 169 181 176 189 190 170 166 167 172 180 182 172 170 172 176 176 181 188 194 201 206 214 218
176 211 219 236 240 230 215 206 201 205 196 193 207 193 150 131 123 141 174 179 180 186 186 185 195 182 172 171 170 173 172 178 174 169 178 183 185 191 194 196 205 215 225 219
205 212 206 203 211 221 235 228 214 208 206 208 175 146 151 162 184 201 198 151 125 127 211 199 181 168 169 169 168 166 167 171 175 181 184 186 188 190 191 198 208 218 231 225
213 224 228 222 219 207 213 220 218 218 211 163 149 165 185 192 194 184 154 139 146 210 257 213 171 165 175 179 164 161 165 168 172 179 183 184 185 189 194 203 213 218 217 215
174 179 187 205 193 182 192 204 191 171 176 163 150 140 155 202 184 162 150 173 214 224 218 180 166 171 180 181 166 162 167 170 174 178 179 182 189 197 201 206 210 215 218 220
164 171 147 187 279 267 187 170 160 169 181 165 168 180 198 212 182 161 154 216 269 236 175 162 159 173 178 171 163 161 166 171 176 180 184 189 194 198 202 207 212 217 222 228
197 186 221 219 162 323 315 254 176 169 161 164 167 168 162 167 168 174 201 215 225 189 160 162 166 172 168 157 155 160 166 169 176 179 183 189 193 200 205 210 215 220 224 228
211 208 207 202 197 240 322 346 198 175 185 192 187 184 186 197 187 176 232 254 205 185 166 177 174 163 157 151 154 158 162 167 175 184 192 195 199 203 207 212 217 222 228 233
202 205 210 187 133 111 30 325 336 326 174 199 204 195 180 174 220 227 211 204 176 163 168 169 154 148 141 140 149 154 157 162 171 179 185 191 194 199 206 213 220 228 232 237
198 179 159 144 146 188 216 246 34 41 48 33 355 311 220 189 196 210 189 177 159 144 144 153 146 138 134 140 147 151 156 163 163 163 169 176 185 194 207 215 222 232 238 242
189 198 210 214 207 203 194 173 166 179 132 61 349 344 359 94 153 152 137 148 150 135 125 128 137 134 135 138 141 145 151 158 155 153 162 170 184 202 219 231 242 245 249 256
129 152 134 83 286 196 172 165 170 189 184 171 208 300 307 108 115 115 117 121 120 115 111 109 119 127 131 131 129 127 125 123 129 142 154 168 194 219 232 235 243 251 256 265
Height
1520 1517 1518 1519 1520 1524 1528 1531 1536 1530 1526 1517 1512 1510 1510 1511 1513 1516 1519 1522 1525 1528 1532 1536 1540 1544 1548 1552 1555 1558 1561 1563 1565 1567 1569 1570 1571 1572 1573 1573 1573 1573 1573 1573
1519 1516 1517 1519 1517 1519 1521 1522 1524 1523 1520 1509 1508 1508 1508 1509 1510 1512 1515 1518 1521 1525 1528 1532 1536 1540 1544 1548 1552 1556 1558 1561 1564 1566 1567 1569 1570 1571 1571 1572 1572 1572 1572 1572
1526 1519 1518 1524 1515 1515 1516 1516 1518 1520 1514 1506 1507 1505 1505 1506 1507 1509 1511 1514 1517 1521 1524 1528 1532 1537 1541 1545 1549 1553 1556 1558 1561 1563 1565 1567 1568 1569 1570 1570 1571 1571 1571 1571
1527 1524 1531 1518 1506 1506 1510 1510 1510 1508 1506 1504 1503 1502 1502 1503 1504 1506 1508 1511 1514 1517 1521 1526 1530 1534 1539 1543 1546 1550 1553 1555 1558 1560 1562 1564 1565 1567 1568 1568 1569 1569 1570 1570
1530 1530 1524 1512 1504 1505 1508 1508 1504 1504 1502 1501 1501 1501 1501 1501 1502 1503 1505 1508 1511 1514 1518 1523 1527 1531 1536 1540 1543 1546 1549 1552 1554 1557 1559 1561 1563 1564 1565 1566 1567 1568 1568 1568
1527 1527 1527 1512 1500 1499 1504 1509 1500 1500 1500 1500 1501 1506 1502 1499 1500 1501 1503 1506 1508 1512 1516 1520 1524 1528 1532 1535 1539 1542 1545 1548 1551 1554 1556 1558 1560 1562 1563 1564 1565 1566 1566 1566
1524 1524 1517 1502 1498 1500 1513 1509 1497 1497 1497 1498 1499 1499 1498 1497 1498 1499 1501 1503 1506 1509 1512 1516 1520 1524 1528 1531 1535 1538 1542 1545 1548 1551 1553 1555 1557 1559 1560 1561 1562 1563 1563 1564
1522 1522 1517 1497 1498 1502 1501 1495 1495 1495 1495 1495 1495 1496 1496 1496 1496 1497 1498 1501 1503 1506 1509 1513 1517 1521 1524 1528 1532 1536 1539 1542 1545 1548 1550 1552 1554 1556 1557 1558 1559 1560 1560 1561
1506 1506 1496 1494 1494 1494 1494 1494 1494 1494 1494 1494 1494 1494 1494 1495 1495 1496 1497 1499 1501 1504 1507 1510 1514 1517 1521 1525 1529 1532 1535 1538 1541 1544 1547 1549 1551 1552 1554 1555 1556 1556 1557 1558
1500 1496 1493 1492 1492 1492 1492 1492 1493 1493 1493 1493 1493 1493 1494 1494 1494 1495 1496 1498 1500 1502 1505 1508 1512 1515 1519 1522 1526 1529 1532 1535 1538 1541 1543 1545 1547 1549 1550 1551 1552 1553 1554 1554
1497 1493 1491 1490 1490 1490 1491 1491 1491 1491 1492 1492 1492 1493 1493 1493 1494 1495 1496 1497 1499 1501 1504 1507 1510 1513 1517 1520 1523 1526 1528 1531 1534 1537 1539 1541 1543 1545 1547 1548 1549 1550 1550 1551
1493 1489 1489 1488 1488 1488 1489 1489 1489 1490 1490 1491 1491 1492 1492 1492 1493 1494 1495 1496 1498 1500 1502 1505 1508 1511 1514 1517 1520 1523 1525 1528 1530 1533 1535 1537 1540 1541 1543 1544 1545 1546 1547 1547
1485 1485 1486 1486 1486 1487 1487 1487 1488 1488 1489 1489 1490 1490 1491 1491 1492 1492 1493 1495 1496 1498 1501 1503 1506 1508 1511 1514 1517 1519 1522 1524 1527 1529 1531 1533 1535 1537 1538 1540 1541 1542 1543 1543
1483 1483 1483 1484 1484 1485 1485 1485 1486 1486 1487 1488 1488 1489 1489 1490 1490 1491 1492 1493 1495 1497 1499 1502 1504 1506 1509 1511 1514 1516 1519 1521 1523 1525 1527 1528 1530 1532 1534 1535 1536 1537 1538 1539
1480 1481 1481 1481 1482 1482 1483 1484 1484 1485 1485 1486 1487 1487 1488 1488 1489 1490 1491 1492 1494 1496 1498 1500 1501 1503 1506 1508 1511 1513 1515 1517 1519 1521 1523 1525 1526 1528 1529 1530 1531 1532 1533 1534
1477 1478 1478 1479 1479 1480 1480 1481 1482 1482 1483 1484 1485 1485 1486 1487 1488 1488 1489 1491 1492 1493 1495 1497 1499 1501 1503 1505 1507 1509 1511 1513 1515 1517 1519 1520 1522 1523 1524 1525 1526 1527 1528 1528
1474 1474 1475 1475 1476 1477 1478 1479 1479 1480 1481 1481 1482 1483 1484 1485 1486 1487 1488 1489 1491 1492 1493 1495 1496 1498 1499 1501 1503 1505 1507 1509 1511 1513 1514 1516 1517 1518 1519 1520 1521 1522 1523 1524
1470 1471 1472 1473 1473 1474 1475 1476 1477 1477 1478 1479 1480 1481 1482 1482 1483 1484 1486 1487 1488 1489 1491 1492 1493 1495 1496 1498 1500 1501 1503 1505 1506 1508 1510 1511 1512 1514 1515 1515 1516 1517 1518 1518
1467 1468 1469 1470 1471 1471 1472 1472 1473 1474 1475 1476 1477 1477 1479 1480 1481 1482 1483 1484 1485 1486 1487 1489 1490 1491 1493 1494 1496 1497 1499 1501 1502 1504 1505 1506 1508 1508 1509 1510 1511 1511 1512 1512
1464 1465 1466 1467 1468 1468 1468 1469 1470 1471 1472 1473 1474 1474 1475 1477 1478 1479 1480 1481 1481 1483 1484 1485 1486 1488 1489 1491 1492 1493 1495 1496 1498 1499 1500 1501 1502 1503 1504 1505 1506 1506 1507 1507
1461 1462 1463 1464 1465 1465 1466 1466 1467 1468 1469 1470 1471 1471 1472 1474 1475 1476 1476 1477 1479 1480 1481 1482 1483 1484 1485 1487 1488 1490 1491 1492 1494 1495 1496 1496 1497 1498 1499 1500 1500 1501 1501 1501
1458 1459 1460 1461 1461 1462 1463 1464 1464 1465 1466 1467 1468 1468 1469 1470 1471 1472 1473 1474 1475 1477 1478 1479 1479 1481 1482 1483 1484 1486 1487 1488 1489 1490 1491 1492 1493 1493 1494 1495 1495 1495 1495 1495
1456 1456 1457 1458 1458 1459 1460 1461 1462 1462 1463 1464 1464 1465 1466 1467 1468 1468 1469 1471 1472 1473 1474 1475 1476 1477 1478 1479 1480 1481 1482 1483 1484 1485 1486 1487 1488 1488 1489 1489 1490 1490 1490 1490
1452 1453 1454 1455 1455 1456 1457 1458 1459 1460 1460 1461 1462 1462 1463 1463 1464 1465 1466 1467 1468 1469 1470 1471 1472 1473 1474 1475 1476 1477 1478 1479 1480 1481 1482 1482 1483 1483 1484 1484 1484 1484 1484 1484
1449 1450 1451 1452 1452 1453 1454 1455 1456 1456 1457 1458 1459 1460 1460 1461 1461 1461 1462 1463 1464 1466 1466 1467 1469 1470 1470 1471 1472 1473 1474 1475 1475 1476 1477 1477 1478 1479 1479 1479 1479 1479 1479 1478
1446 1447 1448 1449 1450 1450 1451 1452 1453 1453 1454 1455 1455 1456 1457 1458 1458 1459 1459 1460 1461 1462 1463 1464 1465 1466 1467 1468 1469 1470 1470 1471 1472 1472 1473 1473 1473 1474 1474 1474 1474 1474 1473 1473
1444 1445 1446 1446 1447 1448 1449 1449 1450 1451 1452 1452 1452 1453 1454 1454 1455 1456 1457 1458 1458 1459 1460 1461 1462 1463 1464 1465 1466 1466 1467 1468 1468 1469 1469 1469 1470 1470 1469 1469 1469 1469 1469 1468